Location: Ajisawe
(8.4333°N, 4.3833°E)
Time: 19:57:10
(UTC+00:00)

Vanguard 2 - Visible Passes

Search period start: 19 April 2021 00:00
Search period end: 29 April 2021 00:00
Orbit: 552 x 2938 km, 32.9° (Epoch: 18 April)

Date Brightness Start Highest point End Pass type
(mag) Time Alt. Az. Time Alt. Az. Time Alt. Az.
19 Apr 8.5 18:42:21 10° NW 18:47:16 29° NNE 18:49:33 19° ENE visible
20 Apr 7.6 18:59:50 10° NW 19:05:16 51° NNE 19:06:34 37° E visible
21 Apr 7.0 19:17:35 10° WNW 19:23:04 85° SW 19:23:36 68° SE visible
22 Apr 7.9 19:35:41 10° WNW 19:40:39 43° SW 19:40:39 43° SW visible
23 Apr 11.4 04:26:45 10° SSE 04:30:52 12° SE 04:35:24 10° SE visible
23 Apr 9.1 19:54:19 10° W 19:57:43 22° SW 19:57:43 22° SW visible
24 Apr 11.2 04:41:19 10° S 04:49:05 18° SE 04:58:33 10° ESE visible
24 Apr 10.0 20:14:18 10° WSW 20:14:47 11° SW 20:14:47 11° SW visible
25 Apr 11.1 04:57:24 10° S 05:07:03 26° SE 05:19:31 10° E visible
25 Apr 8.0 18:18:33 10° WNW 18:25:43 67° SW 18:30:21 10° SE visible
26 Apr 8.8 18:36:54 10° WNW 18:43:16 38° SW 18:47:31 11° SSE visible
27 Apr 11.2 03:30:10 10° SSE 03:31:52 10° SE 03:33:39 10° SE visible
27 Apr 9.5 18:55:50 10° W 19:00:42 22° SW 19:04:23 10° S visible
28 Apr 11.0 03:43:31 10° S 03:49:48 17° SE 03:57:41 10° ESE visible
28 Apr 10.0 19:16:10 10° WSW 19:18:08 12° SW 19:19:55 10° SSW visible
